Theta_e
306 306 315 316 314 311 315 317 315 314 315 318 319 318 319 324 327 326 330 332 332 334 335 337 337 335 335 334 331 330 331 331 331 331 331 330 330 330 330 330 331 333 332 332 331 331 331 331 330
306 309 314 315 310 312 311 311 313 313 317 318 320 319 318 324 325 329 329 332 333 334 334 335 335 334 334 333 331 331 330 331 330 330 329 329 328 329 330 330 330 330 330 329 329 330 331 331 332
307 312 314 309 308 308 310 312 310 314 318 318 318 318 318 321 324 325 327 332 333 332 335 336 333 332 332 332 331 330 330 329 326 322 319 316 312 311 310 310 310 312 316 318 321 327 330 330 329
310 313 314 311 310 310 310 312 312 314 316 317 318 314 317 324 324 324 326 330 333 332 332 331 331 331 331 330 330 330 330 327 322 318 315 312 311 311 311 311 311 311 311 310 309 309 308 308 316
311 312 308 309 309 311 310 313 315 313 315 315 317 315 314 322 323 322 324 326 331 330 330 330 330 329 328 330 330 330 328 324 320 315 312 311 311 312 311 310 309 308 307 307 306 306 307 307 308
310 311 309 310 310 310 310 313 313 313 313 316 316 314 314 316 318 320 323 323 325 325 328 329 328 327 329 330 330 327 324 318 314 311 310 311 311 310 308 305 305 304 304 305 305 305 305 305 305
306 307 308 310 309 310 311 314 310 311 312 313 317 312 315 316 318 320 323 325 325 324 323 326 326 326 328 328 326 323 319 314 311 310 310 311 311 309 305 304 304 304 304 304 304 304 304 304 304
309 306 310 309 311 312 312 312 313 313 312 314 315 311 313 314 319 322 327 327 326 323 320 325 325 325 325 325 321 318 315 311 310 310 311 311 310 307 304 304 304 304 304 304 304 304 304 304 304
307 306 307 309 310 312 313 311 312 312 312 312 313 313 315 314 319 323 327 326 325 323 320 322 323 322 322 321 317 314 311 310 310 310 311 311 309 306 304 304 304 304 304 304 304 304 304 304 304
305 305 307 309 309 311 312 310 310 310 310 310 312 313 314 315 317 320 325 324 324 322 320 319 320 319 319 318 315 312 310 309 309 310 310 310 309 306 304 303 303 303 303 304 303 303 303 303 303
307 307 308 310 312 313 311 310 311 308 308 310 311 313 315 315 316 318 322 320 317 320 319 318 318 316 316 316 314 311 310 309 309 309 309 309 307 305 303 303 303 303 303 303 303 303 303 303 303
307 307 308 309 310 311 310 310 310 309 311 312 312 312 311 313 315 316 318 318 317 318 317 317 317 315 314 313 312 310 309 309 309 309 308 308 306 304 303 303 303 303 303 303 303 303 303 303 303
308 308 310 310 311 311 311 308 308 309 311 312 311 310 311 311 311 314 315 316 317 316 316 315 314 314 313 312 311 310 310 309 308 308 308 306 305 303 303 303 303 303 303 303 303 303 302 302 302
310 309 310 310 310 310 309 307 308 309 312 311 310 311 311 310 310 311 314 315 315 316 316 315 314 313 312 311 311 310 309 309 309 308 307 305 303 303 303 303 303 303 302 302 302 302 302 302 302
310 310 310 310 310 308 309 307 305 310 311 310 311 310 311 311 310 309 309 311 313 315 315 316 314 313 311 311 310 309 308 308 307 306 305 303 303 303 303 303 303 303 303 303 303 303 303 303 302
308 308 310 311 309 309 308 309 308 310 308 308 310 311 310 310 310 310 310 311 313 315 315 315 314 313 311 310 309 309 308 307 306 305 304 303 303 303 303 303 303 303 302 302 302 302 302 301 301
306 308 309 310 309 309 308 310 309 310 310 307 308 310 310 310 309 310 310 310 311 313 314 314 313 312 310 309 308 308 307 306 305 304 304 303 303 303 303 303 303 302 302 302 302 301 300 300 300
309 308 309 309 310 310 310 309 310 310 309 309 308 309 311 311 310 309 309 310 310 310 312 313 312 311 309 308 307 307 306 305 304 304 303 303 303 302 302 302 302 302 302 301 300 300 299 300 300
309 309 309 309 309 310 311 310 308 309 308 307 309 309 310 311 311 309 308 308 308 309 310 310 309 309 309 308 306 306 306 304 304 303 303 303 302 302 302 302 302 302 301 300 299 299 299 299 298
308 309 309 309 310 309 310 311 308 307 308 309 309 310 310 311 310 309 309 308 307 307 308 308 308 307 307 307 306 305 305 303 303 302 302 302 302 302 302 302 301 301 300 298 298 298 298 298 297
308 309 309 309 309 309 311 312 310 307 308 310 311 311 311 312 310 309 309 308 307 306 306 306 306 306 305 305 305 304 303 302 301 302 302 302 301 301 301 301 301 299 298 297 297 297 296 296 296
308 307 308 308 308 311 310 315 312 311 309 309 310 309 310 311 310 310 309 308 307 307 305 304 303 304 304 304 304 303 303 302 302 302 301 301 301 301 301 299 298 297 297 297 297 296 295 295 295
308 307 308 308 310 310 311 314 311 310 311 311 309 310 310 310 310 309 309 309 308 306 305 304 303 303 303 304 303 302 302 301 301 300 300 300 300 300 299 297 297 297 297 296 296 295 294 294 294
307 308 309 308 311 312 310 312 310 310 311 310 310 310 311 310 310 310 309 308 306 305 303 303 302 303 303 303 302 301 301 300 300 300 300 300 299 298 297 297 297 296 296 295 294 294 293 293 293
307 310 311 311 312 310 308 312 311 308 309 310 310 310 311 311 308 308 307 305 304 303 302 302 302 302 302 301 301 300 300 299 299 299 299 298 297 296 296 297 296 295 294 293 293 293 293 293 293
310 310 310 311 304 307 306 311 310 308 308 309 309 309 310 311 308 307 306 304 303 302 301 301 301 301 300 300 299 299 299 299 298 298 297 296 295 296 296 296 295 294 294 293 292 293 293 293 293
308 310 307 305 295 308 306 308 306 306 303 301 299 304 306 306 304 303 303 303 302 302 301 301 300 299 299 299 299 298 298 298 296 296 295 295 296 296 295 295 294 294 294 292 293 293 293 293 293
304 304 309 309 309 310 308 305 307 307 302 302 298 299 301 301 301 300 301 301 301 300 299 299 298 298 298 298 297 296 296 295 295 295 295 295 295 295 294 294 294 293 292 292 293 293 292 292 292
307 308 308 306 309 308 309 308 300 303 295 297 295 299 299 299 298 299 300 299 299 298 297 297 296 296 296 296 296 295 295 295 295 295 295 295 294 294 294 294 293 293 292 292 292 293 292 292 292
304 308 306 309 302 301 302 307 295 288 285 292 295 298 298 299 298 298 298 297 297 296 296 296 295 295 295 295 295 294 294 295 295 295 295 294 294 294 294 293 293 293 293 293 293 293 293 292 292
Wind_Speed
3 6 7 2 2 4 4 8 4 4 3 2 8 6 9 5 2 4 18 12 17 20 24 19 16 12 12 8 9 9 9 10 10 10 9 9 8 8 6 5 5 6 5 4 3 1 2 3 3
6 7 3 3 4 2 5 8 10 6 7 6 4 4 6 2 3 14 20 17 20 22 25 21 16 13 12 10 10 10 10 10 9 9 8 8 8 7 5 4 3 3 3 3 2 3 3 4 5
7 6 2 3 4 6 5 3 7 3 11 7 3 4 4 5 7 19 10 21 22 22 25 21 18 14 14 12 12 11 10 10 10 10 9 8 7 6 6 4 3 2 2 3 3 4 6 7 8
7 6 5 2 9 7 9 1 7 5 4 7 8 4 7 8 12 10 18 22 22 22 21 20 17 15 14 15 14 11 10 10 9 8 7 6 6 4 4 3 2 3 4 4 5 5 6 7 9
3 3 2 4 8 8 7 6 7 6 6 9 10 6 9 13 11 11 18 19 22 21 20 20 19 18 13 16 14 13 13 11 10 8 7 6 4 3 3 4 5 5 6 6 7 7 8 9 10
1 3 1 7 9 9 9 19 10 6 5 9 9 12 8 12 14 17 18 17 15 17 20 20 21 16 17 17 17 15 13 12 11 9 8 6 5 4 4 4 4 4 5 5 6 7 8 9 10
6 2 5 5 8 8 8 19 9 11 9 7 8 7 11 19 17 18 17 14 14 15 18 20 20 20 20 18 17 16 14 13 11 10 8 7 6 5 4 4 4 4 5 5 6 6 7 9 10
6 4 4 6 10 10 8 6 10 15 12 13 14 8 8 26 23 23 22 18 16 15 16 20 20 19 18 18 17 15 15 13 12 11 9 8 7 6 6 5 5 5 6 6 7 8 8 9 9
9 1 7 9 9 12 9 2 6 7 8 7 6 7 10 26 26 28 29 25 22 20 17 18 20 20 20 19 18 17 16 15 13 12 11 9 8 7 7 6 6 7 7 8 9 10 11 11 11
7 6 10 7 9 7 8 10 14 7 7 4 7 7 16 27 29 32 35 33 29 26 22 18 20 21 20 20 19 19 18 16 15 14 12 11 10 9 8 8 7 8 9 10 10 11 12 12 13
8 12 14 13 18 10 7 8 11 8 4 14 18 22 24 26 29 32 34 31 29 27 24 21 20 21 21 20 20 21 20 18 16 14 13 12 11 10 9 9 9 10 10 12 12 13 13 13 14
8 16 22 21 25 22 6 8 5 11 13 7 22 27 27 28 31 34 34 32 30 27 25 24 22 21 21 20 20 20 20 18 17 15 14 13 12 10 10 10 10 12 13 13 14 15 15 15 15
10 8 23 29 22 24 18 10 9 7 16 20 15 23 31 29 31 31 31 29 27 28 26 26 25 24 24 22 21 20 19 18 17 16 14 13 12 12 11 11 11 12 13 13 14 15 16 17 17
8 20 20 25 26 20 8 15 11 3 25 20 22 21 27 34 32 31 29 29 29 28 27 26 26 25 26 24 22 21 20 19 17 16 15 15 14 13 12 12 12 12 11 12 13 14 15 16 17
19 15 14 13 7 8 8 13 9 32 32 30 26 24 28 31 29 32 32 31 31 30 28 29 28 26 27 25 24 22 21 19 18 17 16 15 14 13 13 12 11 11 11 12 14 16 17 18 18
5 6 17 11 9 7 10 21 10 32 32 32 36 30 32 32 32 29 29 29 29 30 32 31 30 28 27 27 25 24 23 20 20 18 17 16 15 14 13 12 12 12 13 14 16 18 18 18 19
6 6 5 7 7 5 17 19 18 31 23 26 33 41 32 35 33 32 31 31 31 33 33 33 33 31 29 27 27 25 24 22 22 20 19 18 16 15 14 14 13 14 15 16 17 17 17 17 18
16 5 11 10 6 15 22 23 3 14 11 20 30 32 38 32 37 36 36 34 33 34 34 33 34 33 30 29 28 27 26 24 23 22 20 19 17 16 15 15 15 15 16 17 18 17 17 18 18
15 15 18 11 13 14 19 24 18 19 16 9 13 24 33 39 36 37 38 36 36 37 38 36 35 35 33 33 33 32 30 26 25 23 21 19 18 17 17 17 17 18 19 19 18 18 18 17 17
15 17 21 13 9 6 12 19 8 17 17 22 23 24 25 30 33 36 37 37 38 40 38 37 35 34 34 33 33 31 28 26 23 22 21 19 19 18 18 18 19 20 20 19 18 20 19 18 16
21 21 21 15 1 3 4 17 11 7 10 18 28 34 35 36 35 39 41 41 37 41 42 41 39 37 35 32 31 32 29 27 27 27 24 21 19 19 19 20 20 20 20 20 20 20 19 18 14
21 20 19 17 4 13 11 15 17 8 14 17 28 26 35 39 41 44 46 44 41 38 38 37 38 38 35 32 32 33 34 33 29 24 19 20 20 20 19 19 20 21 21 20 19 18 18 18 15
18 17 12 12 12 10 10 6 16 9 22 26 20 31 39 46 47 49 51 48 43 37 36 37 37 36 35 33 32 32 31 26 22 22 22 21 19 18 19 20 20 19 19 19 18 17 17 17 16
10 3 2 3 11 17 20 14 25 13 24 17 19 31 41 43 48 50 51 50 43 37 35 34 34 35 34 32 30 30 28 28 27 24 23 20 19 19 19 18 18 18 18 17 16 16 16 17 17
7 8 8 8 10 12 15 13 22 7 20 21 18 24 38 42 43 50 51 48 43 37 34 34 35 35 33 32 30 29 29 27 25 23 21 22 21 20 18 17 16 16 16 16 15 15 17 16 17
19 22 10 11 5 10 5 9 12 19 20 36 36 21 17 31 42 49 49 46 42 36 33 33 33 33 32 30 29 27 26 25 24 22 22 21 20 19 17 16 16 16 16 16 15 16 16 15 15
6 11 10 5 1 4 4 5 8 12 9 10 6 18 26 28 37 44 45 43 37 34 33 33 33 31 29 28 26 26 25 24 23 22 21 20 18 17 17 16 17 17 18 18 18 17 16 17 16
12 7 5 6 13 19 7 4 6 11 10 9 8 7 18 27 33 36 37 36 33 31 31 29 28 28 27 25 24 23 22 22 22 20 18 17 17 17 17 17 18 19 20 20 19 19 19 20 19
5 7 5 3 8 13 8 4 7 14 2 8 6 8 19 27 30 35 35 33 32 31 31 30 28 27 26 24 22 21 20 20 18 18 18 17 17 16 16 16 17 19 19 20 20 19 18 18 18
2 14 7 7 6 4 3 10 6 6 5 6 6 12 19 26 30 33 33 32 32 32 31 30 27 25 24 22 20 19 18 18 17 17 17 17 16 16 15 16 15 16 15 16 16 16 16 16 17
Wind_Direction
242 156 140 193 69 77 238 252 262 280 69 28 42 57 127 72 80 172 146 166 167 168 179 178 188 193 185 177 166 162 148 143 136 132 127 127 130 131 137 128 131 136 135 149 170 200 221 238 256
208 163 156 250 121 189 259 241 233 225 128 98 48 8 94 74 108 148 156 169 170 173 179 182 187 189 186 180 177 175 165 158 154 149 146 139 136 139 141 150 164 189 213 232 238 252 259 259 265
194 176 256 169 177 195 217 249 118 136 107 109 89 40 81 122 145 151 185 168 170 174 180 184 190 191 203 196 185 181 172 168 160 156 151 144 142 138 138 145 156 191 227 260 271 272 271 270 265
155 176 246 190 235 254 227 270 145 127 114 141 123 83 102 132 156 175 174 174 171 175 180 189 193 193 195 187 187 183 175 173 168 163 159 156 156 156 157 178 210 244 261 268 272 269 268 269 268
204 232 215 236 256 262 256 243 164 156 173 179 156 159 137 167 195 183 175 179 172 172 181 190 196 205 188 185 188 188 185 183 179 179 176 177 179 197 218 241 251 254 260 263 262 263 264 267 268
249 242 178 234 255 262 266 247 182 172 180 201 165 130 158 188 191 175 177 182 178 184 183 194 200 192 184 188 190 190 187 186 184 186 189 195 205 220 235 246 252 259 264 272 281 282 278 272 268
160 97 244 249 260 288 244 248 172 181 190 211 188 137 160 177 181 176 181 186 191 197 193 193 189 186 190 194 194 194 193 192 194 198 204 215 229 241 246 247 262 279 288 292 292 290 290 288 284
215 133 251 241 247 271 259 220 193 175 210 240 188 178 183 184 181 165 177 193 204 210 202 189 192 194 197 199 199 198 198 202 206 210 217 227 242 252 259 264 272 283 293 302 305 304 299 295 294
207 128 240 239 225 245 281 190 178 173 152 175 188 188 193 182 178 168 174 194 200 211 204 185 193 196 197 199 201 203 206 210 215 223 227 233 239 242 248 257 271 281 290 295 298 301 303 303 298
170 175 220 213 225 264 288 216 183 167 170 189 158 171 166 177 183 179 185 192 204 209 212 199 199 201 202 204 205 208 213 216 220 226 233 237 243 245 253 262 273 282 290 293 294 296 298 299 299
203 220 230 262 262 284 312 287 195 154 200 209 190 181 177 182 189 190 196 203 205 209 215 213 210 208 206 207 209 211 216 220 225 228 231 236 240 248 255 266 274 282 288 295 301 302 302 300 299
241 221 229 256 262 284 280 284 271 198 214 188 230 229 206 197 199 197 200 203 205 209 215 219 215 220 221 207 214 213 219 222 225 228 231 238 243 251 261 270 278 287 295 300 301 302 302 301 299
246 243 244 250 259 268 291 249 239 271 245 240 244 220 218 211 207 206 205 205 209 214 218 222 220 216 223 221 220 221 223 226 227 229 234 241 248 251 258 267 277 284 291 295 298 300 302 302 301
254 240 256 250 249 244 257 266 236 231 245 257 240 234 220 215 211 207 208 209 215 222 222 224 225 221 220 222 221 225 227 229 231 231 235 240 243 249 258 267 276 284 293 298 302 303 303 302 301
264 260 270 244 231 214 248 255 211 246 249 251 252 234 225 215 214 215 216 218 221 224 228 228 227 225 221 221 221 225 227 231 233 233 231 237 242 250 257 265 274 286 293 299 302 302 301 299 298
279 263 242 244 218 234 198 247 234 245 239 234 236 237 219 215 219 223 224 224 223 227 226 229 228 227 224 220 223 223 229 229 233 234 234 237 243 251 256 266 276 287 293 298 301 301 300 298 295
221 249 228 241 225 238 202 253 235 244 241 227 229 234 221 221 216 228 223 221 225 226 226 226 229 226 226 223 223 225 228 229 231 231 233 238 242 248 255 263 273 282 290 297 299 300 300 299 297
222 216 232 229 215 214 235 242 242 211 216 230 228 229 228 219 227 219 218 216 217 220 224 227 230 227 224 225 225 226 228 227 229 231 233 236 240 245 253 263 273 282 290 295 296 294 294 297 299
226 214 237 238 228 246 241 249 224 237 263 231 242 234 226 224 227 219 217 220 220 217 221 222 223 224 222 223 224 226 227 225 229 230 234 238 241 248 255 264 275 284 289 290 290 290 291 292 294
225 231 243 258 242 272 282 271 238 223 241 244 244 238 225 217 217 214 223 226 225 221 218 219 220 225 226 227 229 230 229 228 232 234 237 239 247 252 259 269 276 280 284 286 287 288 289 290 291
225 225 234 236 189 202 25 284 265 253 245 237 243 246 241 229 221 218 223 228 221 220 219 217 222 223 225 227 225 225 223 224 222 227 233 239 244 250 259 267 272 278 281 282 283 284 284 282 278
226 223 231 233 201 247 167 265 258 229 238 240 243 237 237 236 231 223 222 223 221 223 217 214 215 221 224 224 224 225 225 223 227 232 232 234 243 254 258 263 271 276 278 278 278 276 275 277 273
227 236 226 217 209 242 221 245 257 185 241 240 234 235 233 235 228 221 221 226 226 220 218 215 214 217 221 222 223 222 220 222 225 226 233 240 243 249 262 270 275 276 276 274 272 270 270 269 268
217 117 115 208 223 241 234 215 267 220 233 244 231 225 231 225 227 226 225 220 217 216 214 213 212 213 216 218 216 216 216 215 220 223 229 239 252 260 266 270 275 276 274 271 267 265 264 264 262
179 196 224 216 211 239 223 201 239 209 239 236 234 227 227 224 216 216 215 211 207 204 206 206 207 208 211 212 210 210 212 216 222 228 234 242 249 257 265 269 271 271 268 266 263 263 264 261 256
200 202 217 230 189 239 168 213 238 240 252 256 254 248 250 226 211 211 208 206 201 197 200 204 206 207 208 207 206 207 211 217 224 230 238 245 254 261 264 267 268 266 265 262 259 262 261 261 258
192 214 224 262 175 277 197 279 297 255 230 255 246 217 229 205 197 197 195 195 192 194 199 201 201 202 203 201 201 205 212 219 228 235 240 246 251 256 262 264 266 266 264 262 264 262 262 262 259
197 168 200 209 244 254 230 238 226 265 235 243 229 201 183 179 183 185 182 181 185 191 193 190 196 196 197 199 205 210 217 223 230 237 241 245 249 253 257 261 262 263 260 260 263 263 262 261 258
166 207 212 173 211 235 250 244 220 253 270 236 231 198 166 165 168 174 176 179 183 184 188 188 194 198 202 204 208 215 221 226 231 236 242 245 249 252 257 261 261 260 257 256 256 258 257 255 253
159 214 194 208 232 227 184 251 181 212 258 277 228 181 172 171 169 172 174 176 180 183 186 191 195 200 204 209 212 219 227 232 232 233 238 243 246 248 253 258 260 262 259 256 255 255 255 251 249